Location: Newark
(25.4800°N, 85.7200°E)
Time: 19:22:27
(UTC+00:00)

Explorer 11/Cluster Stage 4 - Pass Details

Date: 28 August 2019
Orbit: 467 x 1260 km, 28.8° (Epoch: 17 September)

Event Time Altitude Azimuth Distance (km) Brightness Sun altitude
Rises 03:32:21 0° 265° (W) 3,743 9.7 47.7°
Reaches altitude 10° 03:34:54 10° 267° (W) 2,893 9.2 48.2°
Maximum altitude 03:42:15 75° 352° (N) 1,231 8.3 49.8°
Drops below altitude 10° 03:50:31 10° 77° (ENE) 3,230 10.4 51.6°
Sets 03:53:30 0° 79° (E) 4,199 10.8 52.2°
